Time,TemperatureF,DewpointF,PressureIn,WindDirection,WindDirectionDegrees,WindSpeedMPH,WindSpeedGustMPH,Humidity,HourlyPrecipIn,Conditions,Clouds,dailyrainin,SoftwareType,DateUTC
2013-05-27 00:01:00,56.7,51.3,28.66,WSW,242,2.3,2.3,82,0.00,CLR,CLR,0.00,WeatherDisplay:10.37,2013-05-27 04:01:00,
2013-05-27 00:06:00,56.6,51.2,28.66,South,184,3.5,3.5,82,0.00,CLR,CLR,0.00,WeatherDisplay:10.37,2013-05-27 04:06:00,
2013-05-27 00:11:00,56.4,50.6,28.66,WSW,246,5.8,5.8,81,0.00,CLR,CLR,0.00,WeatherDisplay:10.37,2013-05-27 04:11:00,
2013-05-27 00:16:00,56.2,50.4,28.66,SSW,212,4.6,4.6,81,0.00,CLR,CLR,0.00,WeatherDisplay:10.37,2013-05-27 04:16:00,
2013-05-27 00:21:00,56.1,50.3,28.66,SW,214,3.5,3.5,81,0.00,CLR,CLR,0.00,WeatherDisplay:10.37,2013-05-27 04:21:00,
2013-05-27 00:27:00,55.9,50.2,28.66,WSW,241,4.6,4.6,81,0.00,CLR,CLR,0.00,WeatherDisplay:10.37,2013-05-27 04:27:00,
2013-05-27 00:32:00,55.8,49.7,28.66,SW,218,3.5,3.5,80,0.00,CLR,CLR,0.00,WeatherDisplay:10.37,2013-05-27 04:32:00,
2013-05-27 00:37:00,55.8,50.1,28.66,SW,218,2.3,2.3,81,0.00,CLR,CLR,0.00,WeatherDisplay:10.37,2013-05-27 04:37:00,
2013-05-27 00:42:00,55.8,50.1,28.66,SW,218,3.5,3.5,81,0.00,CLR,CLR,0.00,WeatherDisplay:10.37,2013-05-27 04:42:00,
2013-05-27 00:47:00,55.6,50.2,28.66,SW,218,1.0,1.0,82,0.00,CLR,CLR,0.00,WeatherDisplay:10.37,2013-05-27 04:47:00,
2013-05-27 00:52:00,55.6,50.2,28.66,SW,218,2.3,2.3,82,0.00,CLR,CLR,0.00,WeatherDisplay:10.37,2013-05-27 04:52:00,
2013-05-27 00:58:00,55.7,50.3,28.66,SW,218,3.5,3.5,82,0.00,CLR,CLR,0.00,WeatherDisplay:10.37,2013-05-27 04:58:00,
2013-05-27 01:03:00,55.6,50.2,28.66,SW,234,2.3,0.0,82,0.00,CLR,CLR,0.00,WeatherDisplay:10.37,2013-05-27 05:03:00,
2013-05-27 01:08:00,55.5,49.8,28.66,SW,233,3.5,3.5,81,0.00,CLR,CLR,0.00,WeatherDisplay:10.37,2013-05-27 05:08:00,
2013-05-27 01:13:00,55.4,49.3,28.66,SW,233,3.5,3.5,80,0.00,CLR,CLR,0.00,WeatherDisplay:10.37,2013-05-27 05:13:00,
2013-05-27 01:19:00,55.3,49.2,28.66,West,265,5.8,5.8,80,0.00,CLR,CLR,0.00,WeatherDisplay:10.37,2013-05-27 05:19:00,
2013-05-27 01:24:00,55.1,48.4,28.66,NW,310,5.8,5.8,78,0.00,CLR,CLR,0.00,WeatherDisplay:10.37,2013-05-27 05:24:00,
2013-05-27 01:29:00,55.1,48.0,28.66,WNW,286,6.9,6.9,77,0.00,CLR,CLR,0.00,WeatherDisplay:10.37,2013-05-27 05:29:00,
2013-05-27 01:34:00,55.1,48.4,28.66,SW,228,3.5,3.5,78,0.00,CLR,CLR,0.00,WeatherDisplay:10.37,2013-05-27 05:34:00,
2013-05-27 01:39:00,54.9,47.8,28.66,SW,228,0.0,0.0,77,0.00,CLR,CLR,0.00,WeatherDisplay:10.37,2013-05-27 05:39:00,
2013-05-27 01:45:00,54.5,48.1,28.66,SW,229,3.5,3.5,79,0.00,CLR,CLR,0.00,WeatherDisplay:10.37,2013-05-27 05:45:00,
2013-05-27 01:50:00,54.1,48.1,28.66,SW,228,3.5,3.5,80,0.00,CLR,CLR,0.00,WeatherDisplay:10.37,2013-05-27 05:50:00,
2013-05-27 01:55:00,54.1,47.4,28.66,WSW,255,3.5,3.5,78,0.00,CLR,CLR,0.00,WeatherDisplay:10.37,2013-05-27 05:55:00,
2013-05-27 02:00:00,54.2,47.1,28.66,South,170,4.6,4.6,77,0.00,CLR,CLR,0.00,WeatherDisplay:10.37,2013-05-27 06:00:00,
2013-05-27 02:05:00,54.4,47.0,28.66,WSW,248,3.5,3.7,76,0.00,CLR,CLR,0.00,WeatherDisplay:10.37,2013-05-27 06:05:00,
2013-05-27 02:11:00,54.5,47.1,28.66,WSW,246,3.5,3.5,76,0.00,CLR,CLR,0.00,WeatherDisplay:10.37,2013-05-27 06:11:00,
2013-05-27 02:16:00,54.6,46.8,28.66,West,265,3.5,3.5,75,0.00,CLR,CLR,0.00,WeatherDisplay:10.37,2013-05-27 06:16:00,
2013-05-27 02:21:00,54.6,46.8,28.66,SW,230,3.5,3.5,75,0.00,CLR,CLR,0.00,WeatherDisplay:10.37,2013-05-27 06:21:00,
2013-05-27 02:26:00,54.5,46.7,28.66,WSW,237,3.5,3.5,75,0.00,CLR,CLR,0.00,WeatherDisplay:10.37,2013-05-27 06:26:00,
2013-05-27 02:31:00,54.4,46.6,28.66,WSW,256,4.6,4.6,75,0.00,CLR,CLR,0.00,WeatherDisplay:10.37,2013-05-27 06:31:00,
2013-05-27 02:36:00,54.4,46.3,28.66,WSW,258,3.5,3.5,74,0.00,CLR,CLR,0.00,WeatherDisplay:10.37,2013-05-27 06:36:00,
2013-05-27 02:42:00,54.4,46.3,28.66,West,266,3.5,3.5,74,0.00,CLR,CLR,0.00,WeatherDisplay:10.37,2013-05-27 06:42:00,
2013-05-27 02:47:00,54.5,46.0,28.65,SW,230,3.5,3.5,73,0.00,CLR,CLR,0.00,WeatherDisplay:10.37,2013-05-27 06:47:00,
2013-05-27 02:52:00,54.8,45.9,28.65,SW,230,3.0,3.0,72,0.00,CLR,CLR,0.00,WeatherDisplay:10.37,2013-05-27 06:52:00,
2013-05-27 02:57:00,55.1,45.9,28.66,SW,230,3.5,3.5,71,0.00,CLR,CLR,0.00,WeatherDisplay:10.37,2013-05-27 06:57:00,
2013-05-27 03:02:00,55.5,45.5,28.65,SW,230,3.5,3.5,69,0.00,CLR,CLR,0.00,WeatherDisplay:10.37,2013-05-27 07:02:00,
2013-05-27 03:07:00,55.7,45.3,28.65,SW,230,2.3,2.3,68,0.00,CLR,CLR,0.00,WeatherDisplay:10.37,2013-05-27 07:07:00,
2013-05-27 03:12:00,55.9,47.4,28.66,SW,230,0.0,0.0,73,0.00,CLR,CLR,0.00,WeatherDisplay:10.37,2013-05-27 07:12:00,
2013-05-27 03:17:00,55.4,46.9,28.66,SW,231,4.0,4.0,73,0.00,CLR,CLR,0.00,WeatherDisplay:10.37,2013-05-27 07:17:00,
2013-05-27 03:22:00,55.0,46.5,28.66,SSW,202,2.0,2.0,73,0.00,CLR,CLR,0.00,WeatherDisplay:10.37,2013-05-27 07:22:00,
2013-05-27 03:27:00,54.8,46.3,28.67,West,261,3.5,3.5,73,0.00,CLR,CLR,0.00,WeatherDisplay:10.37,2013-05-27 07:27:00,
2013-05-27 03:33:00,54.6,46.1,28.66,WSW,240,4.6,4.6,73,0.00,CLR,CLR,0.00,WeatherDisplay:10.37,2013-05-27 07:33:00,
2013-05-27 03:38:00,54.6,46.5,28.67,WSW,241,3.5,3.5,74,0.00,CLR,CLR,0.00,WeatherDisplay:10.37,2013-05-27 07:38:00,
2013-05-27 03:43:00,54.8,46.3,28.66,WSW,241,1.2,0.0,73,0.00,CLR,CLR,0.00,WeatherDisplay:10.37,2013-05-27 07:43:00,
2013-05-27 03:48:00,54.8,46.7,28.66,WSW,241,3.5,3.5,74,0.00,CLR,CLR,0.00,WeatherDisplay:10.37,2013-05-27 07:48:00,
2013-05-27 03:53:00,54.9,46.4,28.66,WSW,241,3.5,3.5,73,0.00,CLR,CLR,0.00,WeatherDisplay:10.37,2013-05-27 07:53:00,
2013-05-27 03:58:00,55.1,46.2,28.66,WSW,241,0.0,0.0,72,0.00,CLR,CLR,0.00,WeatherDisplay:10.37,2013-05-27 07:58:00,
2013-05-27 04:04:00,55.2,46.3,28.66,WSW,241,0.0,0.0,72,0.00,CLR,CLR,0.00,WeatherDisplay:10.37,2013-05-27 08:04:00,
2013-05-27 04:09:00,55.0,46.5,28.66,WSW,241,0.0,0.0,73,0.00,CLR,CLR,0.00,WeatherDisplay:10.37,2013-05-27 08:09:00,
2013-05-27 04:14:00,54.7,46.9,28.66,WSW,241,2.0,2.0,75,0.00,CLR,CLR,0.00,WeatherDisplay:10.37,2013-05-27 08:14:00,
2013-05-27 04:19:00,54.3,46.9,28.66,WSW,241,3.5,3.5,76,0.00,CLR,CLR,0.00,WeatherDisplay:10.37,2013-05-27 08:19:00,
2013-05-27 04:25:00,54.0,46.6,28.67,WSW,241,3.5,3.5,76,0.00,CLR,CLR,0.00,WeatherDisplay:10.37,2013-05-27 08:25:00,
2013-05-27 04:30:00,53.9,46.5,28.67,SSW,193,3.5,3.5,76,0.00,CLR,CLR,0.00,WeatherDisplay:10.37,2013-05-27 08:30:00,
2013-05-27 04:35:00,53.9,46.2,28.67,SW,220,2.3,2.3,75,0.00,CLR,CLR,0.00,WeatherDisplay:10.37,2013-05-27 08:35:00,
2013-05-27 04:40:00,53.9,46.2,28.67,SW,220,3.5,3.5,75,0.00,CLR,CLR,0.00,WeatherDisplay:10.37,2013-05-27 08:40:00,
2013-05-27 04:46:00,53.9,46.2,28.67,SW,220,1.2,1.2,75,0.00,CLR,CLR,0.00,WeatherDisplay:10.37,2013-05-27 08:46:00,
2013-05-27 04:51:00,53.9,46.5,28.67,SW,220,3.5,3.5,76,0.00,CLR,CLR,0.00,WeatherDisplay:10.37,2013-05-27 08:51:00,
2013-05-27 04:56:00,53.6,46.6,28.67,SW,220,3.5,3.5,77,0.00,CLR,CLR,0.00,WeatherDisplay:10.37,2013-05-27 08:56:00,
2013-05-27 05:01:00,53.4,46.4,28.67,SW,220,3.5,3.5,77,0.00,CLR,CLR,0.00,WeatherDisplay:10.37,2013-05-27 09:01:00,
2013-05-27 05:06:00,53.2,46.5,28.67,SW,220,3.5,3.5,78,0.00,CLR,CLR,0.00,WeatherDisplay:10.37,2013-05-27 09:06:00,
2013-05-27 05:11:00,52.9,46.2,28.67,West,260,5.0,5.0,78,0.00,CLR,CLR,0.00,WeatherDisplay:10.37,2013-05-27 09:11:00,
2013-05-27 05:16:00,52.7,46.0,28.67,WSW,237,5.8,5.8,78,0.00,CLR,CLR,0.00,WeatherDisplay:10.37,2013-05-27 09:16:00,
2013-05-27 05:21:00,52.7,46.4,28.67,WSW,244,4.6,4.6,79,0.00,CLR,CLR,0.00,WeatherDisplay:10.37,2013-05-27 09:21:00,
2013-05-27 05:26:00,52.7,46.0,28.67,WSW,241,3.5,3.5,78,0.00,CLR,CLR,0.00,WeatherDisplay:10.37,2013-05-27 09:26:00,
2013-05-27 05:31:00,52.7,45.7,28.68,WSW,255,6.9,6.9,77,0.00,CLR,CLR,0.00,WeatherDisplay:10.37,2013-05-27 09:31:00,
2013-05-27 05:37:00,52.8,46.1,28.68,WSW,256,5.0,5.0,78,0.00,CLR,CLR,0.00,WeatherDisplay:10.37,2013-05-27 09:37:00,
2013-05-27 05:42:00,52.8,46.1,28.68,West,264,5.8,5.8,78,0.00,CLR,CLR,0.00,WeatherDisplay:10.37,2013-05-27 09:42:00,
2013-05-27 05:47:00,52.8,46.1,28.67,SW,234,5.8,5.8,78,0.00,CLR,CLR,0.00,WeatherDisplay:10.37,2013-05-27 09:47:00,
2013-05-27 05:52:00,52.8,45.8,28.67,SW,230,4.6,4.6,77,0.00,CLR,CLR,0.00,WeatherDisplay:10.37,2013-05-27 09:52:00,
2013-05-27 05:57:00,52.8,45.8,28.68,WSW,241,3.5,3.5,77,0.00,CLR,CLR,0.00,WeatherDisplay:10.37,2013-05-27 09:57:00,
2013-05-27 06:02:00,52.7,46.0,28.69,WSW,241,3.5,3.5,78,0.00,CLR,CLR,0.00,WeatherDisplay:10.37,2013-05-27 10:02:00,
2013-05-27 06:07:00,52.6,45.9,28.69,WSW,248,6.9,6.9,78,0.00,CLR,CLR,0.00,WeatherDisplay:10.37,2013-05-27 10:07:00,
2013-05-27 06:13:00,52.5,45.8,28.77,WSW,250,4.6,4.6,78,0.00,CLR,CLR,0.00,WeatherDisplay:10.37,2013-05-27 10:13:00,
2013-05-27 06:18:00,52.6,45.9,28.77,WSW,246,5.8,5.8,78,0.00,CLR,CLR,0.00,WeatherDisplay:10.37,2013-05-27 10:18:00,
2013-05-27 06:23:00,52.9,46.2,28.81,WSW,243,4.0,4.0,78,0.00,CLR,CLR,0.00,WeatherDisplay:10.37,2013-05-27 10:23:00,
2013-05-27 06:28:00,53.4,46.4,28.81,WSW,241,3.5,3.5,77,0.00,CLR,CLR,0.00,WeatherDisplay:10.37,2013-05-27 10:28:00,
2013-05-27 06:33:00,54.0,45.9,28.80,WSW,241,2.0,2.0,74,0.00,CLR,CLR,0.00,WeatherDisplay:10.37,2013-05-27 10:33:00,
2013-05-27 06:38:00,54.5,45.7,28.80,WSW,241,3.5,3.5,72,0.00,CLR,CLR,0.00,WeatherDisplay:10.37,2013-05-27 10:38:00,
2013-05-27 06:43:00,54.8,45.6,28.79,WSW,241,2.3,2.3,71,0.00,CLR,CLR,0.00,WeatherDisplay:10.37,2013-05-27 10:43:00,
2013-05-27 06:48:00,55.4,45.4,28.77,WSW,241,2.3,2.3,69,0.00,CLR,CLR,0.00,WeatherDisplay:10.37,2013-05-27 10:48:00,
2013-05-27 06:53:00,56.3,45.9,28.78,WSW,241,1.2,0.0,68,0.00,CLR,CLR,0.00,WeatherDisplay:10.37,2013-05-27 10:53:00,
2013-05-27 06:59:00,57.5,47.8,28.77,WSW,241,2.3,2.3,70,0.00,CLR,CLR,0.00,WeatherDisplay:10.37,2013-05-27 10:59:00,
2013-05-27 07:04:00,58.4,48.7,28.78,WSW,241,2.3,0.0,70,0.00,CLR,CLR,0.00,WeatherDisplay:10.37,2013-05-27 11:04:00,
2013-05-27 07:09:00,59.1,49.3,28.77,WSW,241,2.3,2.3,70,0.00,CLR,CLR,0.00,WeatherDisplay:10.37,2013-05-27 11:09:00,
2013-05-27 07:14:00,60.1,48.7,28.81,WSW,241,2.3,2.3,66,0.00,CLR,CLR,0.00,WeatherDisplay:10.37,2013-05-27 11:14:00,
2013-05-27 07:19:00,61.1,50.1,28.82,WSW,241,0.0,0.0,67,0.00,CLR,CLR,0.00,WeatherDisplay:10.37,2013-05-27 11:19:00,
2013-05-27 07:25:00,61.7,51.8,28.74,WSW,241,1.2,1.2,70,0.00,CLR,CLR,0.00,WeatherDisplay:10.37,2013-05-27 11:25:00,
2013-05-27 07:30:00,62.4,52.5,28.76,WSW,241,1.2,1.2,70,0.00,CLR,CLR,0.00,WeatherDisplay:10.37,2013-05-27 11:30:00,
2013-05-27 07:35:00,63.3,53.0,28.76,WSW,241,0.0,0.0,69,0.00,CLR,CLR,0.00,WeatherDisplay:10.37,2013-05-27 11:35:00,
2013-05-27 07:40:00,64.3,52.7,28.75,WSW,241,2.3,2.3,66,0.00,CLR,CLR,0.00,WeatherDisplay:10.37,2013-05-27 11:40:00,
2013-05-27 07:45:00,64.8,52.8,28.76,WSW,241,0.0,0.0,65,0.00,CLR,CLR,0.00,WeatherDisplay:10.37,2013-05-27 11:45:00,
2013-05-27 07:51:00,65.0,52.9,28.78,WSW,241,0.0,0.0,65,0.00,CLR,CLR,0.00,WeatherDisplay:10.37,2013-05-27 11:51:00,
2013-05-27 07:56:00,65.3,52.8,28.79,WSW,241,1.2,0.0,64,0.00,CLR,CLR,0.00,WeatherDisplay:10.37,2013-05-27 11:56:00,
2013-05-27 08:01:00,65.6,53.5,28.76,WSW,241,1.2,1.2,65,0.00,CLR,CLR,0.00,WeatherDisplay:10.37,2013-05-27 12:01:00,
2013-05-27 08:06:00,66.0,52.2,28.75,WSW,241,2.3,0.0,61,0.00,CLR,CLR,0.00,WeatherDisplay:10.37,2013-05-27 12:06:00,
2013-05-27 08:11:00,66.3,54.6,28.81,WSW,241,0.0,0.0,66,0.00,CLR,CLR,0.00,WeatherDisplay:10.37,2013-05-27 12:11:00,
2013-05-27 08:17:00,65.9,51.2,28.79,WSW,241,0.0,0.0,59,0.00,CLR,CLR,0.00,WeatherDisplay:10.37,2013-05-27 12:17:00,
2013-05-27 08:22:00,65.1,51.3,28.75,WSW,241,3.5,3.5,61,0.00,CLR,CLR,0.00,WeatherDisplay:10.37,2013-05-27 12:22:00,
2013-05-27 08:27:00,65.2,52.7,28.75,WSW,241,3.5,3.5,64,0.00,CLR,CLR,0.00,WeatherDisplay:10.37,2013-05-27 12:27:00,
2013-05-27 08:32:00,64.5,52.0,28.80,WNW,284,1.2,1.2,64,0.00,CLR,CLR,0.00,WeatherDisplay:10.37,2013-05-27 12:32:00,
2013-05-27 08:37:00,64.1,51.7,28.80,WNW,284,2.3,2.3,64,0.00,CLR,CLR,0.00,WeatherDisplay:10.37,2013-05-27 12:37:00,
2013-05-27 08:42:00,64.1,52.1,28.77,WNW,284,2.3,2.3,65,0.00,CLR,CLR,0.00,WeatherDisplay:10.37,2013-05-27 12:42:00,
2013-05-27 08:47:00,64.1,49.0,28.80,WNW,284,1.2,0.0,58,0.00,CLR,CLR,0.00,WeatherDisplay:10.37,2013-05-27 12:47:00,
2013-05-27 08:53:00,64.7,50.0,28.77,WNW,284,0.0,0.0,59,0.00,CLR,CLR,0.00,WeatherDisplay:10.37,2013-05-27 12:53:00,
2013-05-27 08:58:00,65.5,51.7,28.80,WNW,284,1.2,1.2,61,0.00,CLR,CLR,0.00,WeatherDisplay:10.37,2013-05-27 12:58:00,
2013-05-27 09:03:00,66.0,51.7,28.77,WNW,284,1.2,0.0,60,0.00,CLR,CLR,0.00,WeatherDisplay:10.37,2013-05-27 13:03:00,
2013-05-27 09:08:00,66.2,51.4,28.78,WNW,284,2.3,0.0,59,0.00,CLR,CLR,0.00,WeatherDisplay:10.37,2013-05-27 13:08:00,
2013-05-27 09:14:00,66.4,52.5,28.79,WNW,284,2.3,2.3,61,0.00,CLR,CLR,0.00,WeatherDisplay:10.37,2013-05-27 13:14:00,
2013-05-27 09:19:00,66.9,53.0,28.83,WNW,285,2.3,2.3,61,0.00,CLR,CLR,0.00,WeatherDisplay:10.37,2013-05-27 13:19:00,
2013-05-27 09:24:00,66.8,53.4,28.78,NNW,337,3.5,3.5,62,0.00,CLR,CLR,0.00,WeatherDisplay:10.37,2013-05-27 13:24:00,
2013-05-27 09:29:00,67.0,52.7,28.78,NNW,337,1.2,1.2,60,0.00,CLR,CLR,0.00,WeatherDisplay:10.37,2013-05-27 13:29:00,
2013-05-27 09:34:00,68.3,53.4,28.83,NNW,337,2.3,2.3,59,0.00,CLR,CLR,0.00,WeatherDisplay:10.37,2013-05-27 13:34:00,
2013-05-27 09:40:00,69.0,52.2,28.81,North,7,3.5,3.5,55,0.00,CLR,CLR,0.00,WeatherDisplay:10.37,2013-05-27 13:40:00,
2013-05-27 09:45:00,69.5,52.6,28.81,North,0,3.5,3.5,55,0.00,CLR,CLR,0.00,WeatherDisplay:10.37,2013-05-27 13:45:00,
2013-05-27 09:50:00,69.0,51.2,28.78,North,2,3.5,3.5,53,0.00,CLR,CLR,0.00,WeatherDisplay:10.37,2013-05-27 13:50:00,
2013-05-27 09:55:00,68.2,51.9,28.79,North,0,3.5,3.5,56,0.00,CLR,CLR,0.00,WeatherDisplay:10.37,2013-05-27 13:55:00,
2013-05-27 10:00:00,67.9,51.6,28.76,North,0,3.5,3.5,56,0.00,CLR,CLR,0.00,WeatherDisplay:10.37,2013-05-27 14:00:00,
2013-05-27 10:05:00,67.9,52.1,28.76,North,0,2.3,2.3,57,0.00,CLR,CLR,0.00,WeatherDisplay:10.37,2013-05-27 14:05:00,
2013-05-27 10:10:00,67.8,50.5,28.72,North,0,1.2,1.2,54,0.00,CLR,CLR,0.00,WeatherDisplay:10.37,2013-05-27 14:10:00,
2013-05-27 10:16:00,68.4,53.5,28.77,North,0,3.5,3.5,59,0.00,CLR,CLR,0.00,WeatherDisplay:10.37,2013-05-27 14:16:00,
2013-05-27 10:21:00,69.4,52.5,28.76,North,1,4.0,4.0,55,0.00,CLR,CLR,0.00,WeatherDisplay:10.37,2013-05-27 14:21:00,
2013-05-27 10:26:00,69.5,52.6,28.76,North,7,2.3,2.3,55,0.00,CLR,CLR,0.00,WeatherDisplay:10.37,2013-05-27 14:26:00,
2013-05-27 10:31:00,70.7,53.7,28.75,North,8,3.5,3.5,55,0.00,CLR,CLR,0.00,WeatherDisplay:10.37,2013-05-27 14:31:00,
2013-05-27 10:36:00,70.8,54.3,28.76,North,7,1.2,0.0,56,0.00,CLR,CLR,0.00,WeatherDisplay:10.37,2013-05-27 14:36:00,
2013-05-27 10:41:00,70.5,54.5,28.74,SW,225,1.2,1.2,57,0.00,CLR,CLR,0.00,WeatherDisplay:10.37,2013-05-27 14:41:00,
2013-05-27 10:46:00,70.2,54.2,28.78,SW,226,3.5,3.5,57,0.00,CLR,CLR,0.00,WeatherDisplay:10.37,2013-05-27 14:46:00,
2013-05-27 10:51:00,69.9,55.4,28.77,NNW,335,4.6,4.6,60,0.00,CLR,CLR,0.00,WeatherDisplay:10.37,2013-05-27 14:51:00,
2013-05-27 10:57:00,69.5,55.0,28.77,NNW,336,3.5,3.5,60,0.00,CLR,CLR,0.00,WeatherDisplay:10.37,2013-05-27 14:57:00,
2013-05-27 11:02:00,69.4,54.9,28.75,North,354,4.0,4.0,60,0.00,CLR,CLR,0.00,WeatherDisplay:10.37,2013-05-27 15:02:00,
2013-05-27 11:07:00,69.4,54.4,28.76,North,6,3.5,3.5,59,0.00,CLR,CLR,0.00,WeatherDisplay:10.37,2013-05-27 15:07:00,
2013-05-27 11:12:00,69.3,54.4,28.75,North,6,1.2,0.0,59,0.00,CLR,CLR,0.00,WeatherDisplay:10.37,2013-05-27 15:12:00,
2013-05-27 11:17:00,69.8,57.1,28.75,WNW,291,3.5,3.5,64,0.00,CLR,CLR,0.00,WeatherDisplay:10.37,2013-05-27 15:17:00,
2013-05-27 11:22:00,70.5,55.5,28.75,WNW,290,0.0,0.0,59,0.00,CLR,CLR,0.00,WeatherDisplay:10.37,2013-05-27 15:22:00,
2013-05-27 11:28:00,71.5,58.2,28.74,SSE,165,1.2,1.2,63,0.00,CLR,CLR,0.00,WeatherDisplay:10.37,2013-05-27 15:28:00,
2013-05-27 11:33:00,71.8,57.2,28.77,SSE,166,1.2,1.2,60,0.00,CLR,CLR,0.00,WeatherDisplay:10.37,2013-05-27 15:33:00,
2013-05-27 11:38:00,72.3,60.3,28.76,South,183,3.5,3.5,66,0.00,CLR,CLR,0.00,WeatherDisplay:10.37,2013-05-27 15:38:00,
2013-05-27 11:43:00,73.3,60.4,28.76,SSE,147,5.8,5.8,64,0.00,CLR,CLR,0.00,WeatherDisplay:10.37,2013-05-27 15:43:00,
2013-05-27 11:48:00,74.4,61.4,28.76,South,191,6.9,6.9,64,0.00,CLR,CLR,0.00,WeatherDisplay:10.37,2013-05-27 15:48:00,
2013-05-27 11:53:00,74.8,60.9,28.76,South,171,11.5,11.5,62,0.00,CLR,CLR,0.00,WeatherDisplay:10.37,2013-05-27 15:53:00,
2013-05-27 11:58:00,75.4,60.5,28.75,East,96,6.9,6.9,60,0.00,CLR,CLR,0.00,WeatherDisplay:10.37,2013-05-27 15:58:00,
2013-05-27 12:04:00,76.0,62.9,28.75,WSW,252,4.6,4.6,64,0.00,CLR,CLR,0.00,WeatherDisplay:10.37,2013-05-27 16:04:00,
2013-05-27 12:09:00,76.7,61.8,28.75,SSW,201,9.2,9.2,60,0.00,CLR,CLR,0.00,WeatherDisplay:10.37,2013-05-27 16:09:00,
2013-05-27 12:14:00,76.6,63.1,28.74,SSE,168,8.1,8.1,63,0.00,CLR,CLR,0.00,WeatherDisplay:10.37,2013-05-27 16:14:00,
2013-05-27 12:19:00,76.8,60.9,28.73,SSW,200,8.1,8.1,58,0.00,CLR,CLR,0.00,WeatherDisplay:10.37,2013-05-27 16:19:00,
2013-05-27 12:24:00,77.2,63.2,28.73,South,172,6.0,6.0,62,0.00,CLR,CLR,0.00,WeatherDisplay:10.37,2013-05-27 16:24:00,
2013-05-27 12:29:00,76.7,60.8,28.73,South,182,10.4,10.4,58,0.00,CLR,CLR,0.00,WeatherDisplay:10.37,2013-05-27 16:29:00,
2013-05-27 12:34:00,76.3,62.8,28.73,South,178,8.1,8.1,63,0.00,CLR,CLR,0.00,WeatherDisplay:10.37,2013-05-27 16:34:00,
2013-05-27 12:40:00,76.3,62.8,28.72,NE,45,3.5,3.5,63,0.00,CLR,CLR,0.00,WeatherDisplay:10.37,2013-05-27 16:40:00,
2013-05-27 12:45:00,76.4,64.2,28.72,SSW,198,2.3,2.3,66,0.00,CLR,CLR,0.00,WeatherDisplay:10.37,2013-05-27 16:45:00,
2013-05-27 12:50:00,76.7,62.2,28.72,SSW,198,11.5,11.5,61,0.00,CLR,CLR,0.00,WeatherDisplay:10.37,2013-05-27 16:50:00,
2013-05-27 12:55:00,76.7,64.0,28.74,SSW,206,3.5,3.5,65,0.00,CLR,CLR,0.00,WeatherDisplay:10.37,2013-05-27 16:55:00,
2013-05-27 13:00:00,76.9,64.2,28.73,NNE,20,4.6,4.6,65,0.00,CLR,CLR,0.00,WeatherDisplay:10.37,2013-05-27 17:00:00,
2013-05-27 13:06:00,77.0,65.2,28.72,SW,214,5.8,5.8,67,0.00,CLR,CLR,0.00,WeatherDisplay:10.37,2013-05-27 17:06:00,
2013-05-27 13:11:00,77.1,64.0,28.73,SW,222,3.5,3.5,64,0.00,CLR,CLR,0.00,WeatherDisplay:10.37,2013-05-27 17:11:00,
2013-05-27 13:16:00,77.3,65.5,28.73,SSW,206,9.2,9.2,67,0.00,CLR,CLR,0.00,WeatherDisplay:10.37,2013-05-27 17:16:00,
2013-05-27 13:21:00,77.5,64.8,28.71,SSW,199,5.0,5.0,65,0.00,CLR,CLR,0.00,WeatherDisplay:10.37,2013-05-27 17:21:00,
2013-05-27 13:26:00,77.7,64.5,28.75,SSW,207,10.4,10.4,64,0.00,CLR,CLR,0.00,WeatherDisplay:10.37,2013-05-27 17:26:00,
2013-05-27 13:32:00,77.7,63.6,28.69,South,183,19.6,19.6,62,0.00,CLR,CLR,0.00,WeatherDisplay:10.37,2013-05-27 17:32:00,
2013-05-27 13:37:00,77.8,65.1,28.71,SSW,201,11.5,11.5,65,0.00,CLR,CLR,0.00,WeatherDisplay:10.37,2013-05-27 17:37:00,
2013-05-27 13:42:00,77.8,63.7,28.69,South,174,7.0,7.0,62,0.00,CLR,CLR,0.00,WeatherDisplay:10.37,2013-05-27 17:42:00,
2013-05-27 13:47:00,77.8,64.2,28.70,SSW,196,8.1,8.1,63,0.00,CLR,CLR,0.00,WeatherDisplay:10.37,2013-05-27 17:47:00,
2013-05-27 13:52:00,78.1,64.9,28.69,SSW,203,10.4,10.4,64,0.00,CLR,CLR,0.00,WeatherDisplay:10.37,2013-05-27 17:52:00,
2013-05-27 13:57:00,78.1,64.9,28.71,South,190,5.0,5.0,64,0.00,CLR,CLR,0.00,WeatherDisplay:10.37,2013-05-27 17:57:00,
2013-05-27 14:03:00,78.1,63.6,28.70,SSW,209,11.5,11.5,61,0.00,CLR,CLR,0.00,WeatherDisplay:10.37,2013-05-27 18:03:00,
2013-05-27 14:08:00,78.1,64.0,28.71,SSE,168,16.1,16.1,62,0.00,CLR,CLR,0.00,WeatherDisplay:10.37,2013-05-27 18:08:00,
2013-05-27 14:13:00,78.0,64.4,28.68,SE,135,8.1,8.1,63,0.00,CLR,CLR,0.00,WeatherDisplay:10.37,2013-05-27 18:13:00,
2013-05-27 14:18:00,77.8,64.2,28.78,SSW,204,9.2,9.2,63,0.00,CLR,CLR,0.00,WeatherDisplay:10.37,2013-05-27 18:18:00,
2013-05-27 14:23:00,78.3,65.1,28.70,South,175,8.1,8.1,64,0.00,CLR,CLR,0.00,WeatherDisplay:10.37,2013-05-27 18:23:00,
2013-05-27 14:28:00,78.5,65.3,28.71,South,185,8.1,8.1,64,0.00,CLR,CLR,0.00,WeatherDisplay:10.37,2013-05-27 18:28:00,
2013-05-27 14:34:00,78.6,64.5,28.71,SSW,195,11.5,11.5,62,0.00,CLR,CLR,0.00,WeatherDisplay:10.37,2013-05-27 18:34:00,
2013-05-27 14:39:00,78.6,64.0,28.66,South,188,6.0,6.0,61,0.00,CLR,CLR,0.00,WeatherDisplay:10.37,2013-05-27 18:39:00,
2013-05-27 14:44:00,78.6,64.5,28.78,South,184,9.2,9.2,62,0.00,CLR,CLR,0.00,WeatherDisplay:10.37,2013-05-27 18:44:00,
2013-05-27 14:49:00,78.7,65.0,28.72,SSW,192,11.5,11.5,63,0.00,CLR,CLR,0.00,WeatherDisplay:10.37,2013-05-27 18:49:00,
2013-05-27 14:54:00,79.0,65.3,28.76,SW,215,6.9,6.9,63,0.00,CLR,CLR,0.00,WeatherDisplay:10.37,2013-05-27 18:54:00,
2013-05-27 15:00:00,78.4,64.3,28.72,SW,217,3.5,3.5,62,0.00,CLR,CLR,0.00,WeatherDisplay:10.37,2013-05-27 19:00:00,
2013-05-27 15:05:00,78.6,65.4,28.74,SW,215,3.5,3.5,64,0.00,CLR,CLR,0.00,WeatherDisplay:10.37,2013-05-27 19:05:00,
2013-05-27 15:10:00,78.0,64.4,28.72,SE,146,3.5,3.5,63,0.00,CLR,CLR,0.00,WeatherDisplay:10.37,2013-05-27 19:10:00,
2013-05-27 15:15:00,77.6,64.0,28.72,SSE,164,8.1,8.1,63,0.00,CLR,CLR,0.00,WeatherDisplay:10.37,2013-05-27 19:15:00,
2013-05-27 15:20:00,78.2,65.9,28.72,South,169,7.0,7.0,66,0.00,CLR,CLR,0.00,WeatherDisplay:10.37,2013-05-27 19:20:00,
2013-05-27 15:26:00,78.4,65.2,28.72,South,185,10.4,10.4,64,0.00,CLR,CLR,0.00,WeatherDisplay:10.37,2013-05-27 19:26:00,
2013-05-27 15:31:00,78.4,64.3,28.76,South,180,5.8,5.8,62,0.00,CLR,CLR,0.00,WeatherDisplay:10.37,2013-05-27 19:31:00,
2013-05-27 15:36:00,78.3,64.7,28.77,SSW,192,2.3,2.3,63,0.00,CLR,CLR,0.00,WeatherDisplay:10.37,2013-05-27 19:36:00,
2013-05-27 15:41:00,78.1,64.9,28.72,SSW,205,9.2,9.2,64,0.00,CLR,CLR,0.00,WeatherDisplay:10.37,2013-05-27 19:41:00,
2013-05-27 15:46:00,77.6,64.0,28.71,SW,220,3.5,3.5,63,0.00,CLR,CLR,0.00,WeatherDisplay:10.37,2013-05-27 19:46:00,
2013-05-27 15:52:00,77.5,64.4,28.77,SSE,153,4.6,4.6,64,0.00,CLR,CLR,0.00,WeatherDisplay:10.37,2013-05-27 19:52:00,
2013-05-27 15:57:00,77.9,65.2,28.71,SSE,159,8.1,8.1,65,0.00,CLR,CLR,0.00,WeatherDisplay:10.37,2013-05-27 19:57:00,
2013-05-27 16:02:00,78.1,64.9,28.72,South,186,5.8,5.8,64,0.00,CLR,CLR,0.00,WeatherDisplay:10.37,2013-05-27 20:02:00,
2013-05-27 16:07:00,78.5,65.8,28.72,South,182,12.7,12.7,65,0.00,CLR,CLR,0.00,WeatherDisplay:10.37,2013-05-27 20:07:00,
2013-05-27 16:12:00,78.9,65.7,28.74,SW,214,7.0,7.0,64,0.00,CLR,CLR,0.00,WeatherDisplay:10.37,2013-05-27 20:12:00,
2013-05-27 16:18:00,78.4,65.2,28.73,SSE,154,9.2,9.2,64,0.00,CLR,CLR,0.00,WeatherDisplay:10.37,2013-05-27 20:18:00,
2013-05-27 16:23:00,78.7,66.8,28.74,SSW,198,7.0,7.0,67,0.00,CLR,CLR,0.00,WeatherDisplay:10.37,2013-05-27 20:23:00,
2013-05-27 16:28:00,78.4,65.7,28.74,SSW,198,5.8,5.8,65,0.00,CLR,CLR,0.00,WeatherDisplay:10.37,2013-05-27 20:28:00,
2013-05-27 16:33:00,78.4,66.1,28.68,South,186,4.0,4.0,66,0.00,CLR,CLR,0.00,WeatherDisplay:10.37,2013-05-27 20:33:00,
2013-05-27 16:39:00,78.2,65.0,28.70,SSE,166,6.9,6.9,64,0.00,CLR,CLR,0.00,WeatherDisplay:10.37,2013-05-27 20:39:00,
2013-05-27 16:44:00,77.8,65.1,28.69,South,177,8.1,8.1,65,0.00,CLR,CLR,0.00,WeatherDisplay:10.37,2013-05-27 20:44:00,
2013-05-27 16:49:00,77.5,65.2,28.70,SSW,209,4.6,4.6,66,0.00,CLR,CLR,0.00,WeatherDisplay:10.37,2013-05-27 20:49:00,
2013-05-27 16:54:00,77.3,65.5,28.69,SSW,209,5.8,5.8,67,0.00,CLR,CLR,0.00,WeatherDisplay:10.37,2013-05-27 20:54:00,
2013-05-27 16:59:00,77.3,65.1,28.68,SSE,163,3.5,3.6,66,0.00,CLR,CLR,0.00,WeatherDisplay:10.37,2013-05-27 20:59:00,
2013-05-27 17:04:00,77.0,64.8,28.75,South,173,3.5,3.5,66,0.00,CLR,CLR,0.00,WeatherDisplay:10.37,2013-05-27 21:04:00,
2013-05-27 17:09:00,76.5,64.3,28.70,SSW,208,6.9,6.9,66,0.00,CLR,CLR,0.00,WeatherDisplay:10.37,2013-05-27 21:09:00,
2013-05-27 17:15:00,75.9,64.2,28.69,South,179,2.3,2.3,67,0.00,CLR,CLR,0.00,WeatherDisplay:10.37,2013-05-27 21:15:00,
2013-05-27 17:20:00,75.6,64.7,28.69,South,188,4.6,4.6,69,0.00,CLR,CLR,0.00,WeatherDisplay:10.37,2013-05-27 21:20:00,
2013-05-27 17:25:00,75.7,64.8,28.69,SSW,203,4.6,4.6,69,0.00,CLR,CLR,0.00,WeatherDisplay:10.37,2013-05-27 21:25:00,
2013-05-27 17:30:00,75.9,64.6,28.68,South,180,5.8,5.8,68,0.00,CLR,CLR,0.00,WeatherDisplay:10.37,2013-05-27 21:30:00,
2013-05-27 17:36:00,75.8,64.5,28.68,SSW,207,5.8,5.8,68,0.00,CLR,CLR,0.00,WeatherDisplay:10.37,2013-05-27 21:36:00,
2013-05-27 17:41:00,75.9,64.6,28.69,SSW,192,3.5,3.5,68,0.00,CLR,CLR,0.00,WeatherDisplay:10.37,2013-05-27 21:41:00,
2013-05-27 17:46:00,76.1,63.9,28.70,SSE,162,5.0,5.0,66,0.00,CLR,CLR,0.00,WeatherDisplay:10.37,2013-05-27 21:46:00,
2013-05-27 17:51:00,76.2,64.4,28.70,SE,133,3.5,3.5,67,0.00,CLR,CLR,0.00,WeatherDisplay:10.37,2013-05-27 21:51:00,
2013-05-27 17:56:00,76.3,64.1,28.71,SE,141,5.8,5.8,66,0.00,CLR,CLR,0.00,WeatherDisplay:10.37,2013-05-27 21:56:00,
2013-05-27 18:02:00,76.0,63.8,28.61,SSE,166,4.6,4.6,66,0.00,CLR,CLR,0.00,WeatherDisplay:10.37,2013-05-27 22:02:00,
2013-05-27 18:07:00,75.8,64.5,28.61,SSE,166,0.0,0.0,68,0.00,CLR,CLR,0.00,WeatherDisplay:10.37,2013-05-27 22:07:00,
2013-05-27 18:12:00,75.8,65.7,28.62,SSE,166,0.0,0.0,71,0.00,CLR,CLR,0.00,WeatherDisplay:10.37,2013-05-27 22:12:00,
2013-05-27 18:17:00,76.0,64.7,28.61,SSW,213,3.5,3.5,68,0.00,CLR,CLR,0.00,WeatherDisplay:10.37,2013-05-27 22:17:00,
2013-05-27 18:22:00,75.9,64.6,28.61,South,172,2.3,2.3,68,0.00,CLR,CLR,0.00,WeatherDisplay:10.37,2013-05-27 22:22:00,
2013-05-27 18:27:00,75.9,64.6,28.61,South,173,3.5,3.5,68,0.00,CLR,CLR,0.00,WeatherDisplay:10.37,2013-05-27 22:27:00,
2013-05-27 18:33:00,75.6,63.9,28.61,West,264,3.5,3.5,67,0.00,CLR,CLR,0.00,WeatherDisplay:10.37,2013-05-27 22:33:00,
2013-05-27 18:38:00,75.6,64.7,28.61,West,260,3.5,3.5,69,0.00,CLR,CLR,0.00,WeatherDisplay:10.37,2013-05-27 22:38:00,
2013-05-27 18:43:00,75.6,64.3,28.61,WSW,255,2.3,2.3,68,0.00,CLR,CLR,0.00,WeatherDisplay:10.37,2013-05-27 22:43:00,
2013-05-27 18:48:00,75.6,64.7,28.61,South,178,4.0,4.0,69,0.00,CLR,CLR,0.00,WeatherDisplay:10.37,2013-05-27 22:48:00,
2013-05-27 18:53:00,75.5,64.6,28.61,SSW,200,5.8,5.8,69,0.00,CLR,CLR,0.00,WeatherDisplay:10.37,2013-05-27 22:53:00,
2013-05-27 18:58:00,75.4,64.5,28.61,South,180,4.6,4.6,69,0.00,CLR,CLR,0.00,WeatherDisplay:10.37,2013-05-27 22:58:00,
2013-05-27 19:03:00,75.2,64.3,28.61,South,179,1.2,1.2,69,0.00,CLR,CLR,0.00,WeatherDisplay:10.37,2013-05-27 23:03:00,
2013-05-27 19:09:00,75.0,64.5,28.60,South,184,3.5,3.5,70,0.00,CLR,CLR,0.00,WeatherDisplay:10.37,2013-05-27 23:09:00,
2013-05-27 19:14:00,74.7,64.3,28.60,SSW,203,3.5,3.5,70,0.00,CLR,CLR,0.00,WeatherDisplay:10.37,2013-05-27 23:14:00,
2013-05-27 19:19:00,74.3,64.3,28.60,SSW,203,3.5,3.5,71,0.00,CLR,CLR,0.00,WeatherDisplay:10.37,2013-05-27 23:19:00,
2013-05-27 19:24:00,74.0,64.0,28.60,SSW,200,4.0,4.0,71,0.00,CLR,CLR,0.00,WeatherDisplay:10.37,2013-05-27 23:24:00,
2013-05-27 19:29:00,73.7,64.1,28.60,SSW,199,4.0,4.0,72,0.00,CLR,CLR,0.00,WeatherDisplay:10.37,2013-05-27 23:29:00,
2013-05-27 19:34:00,73.4,64.2,28.60,SSW,199,2.3,2.3,73,0.00,CLR,CLR,0.00,WeatherDisplay:10.37,2013-05-27 23:34:00,
2013-05-27 19:40:00,73.1,63.9,28.60,SSW,199,1.2,1.2,73,0.00,CLR,CLR,0.00,WeatherDisplay:10.37,2013-05-27 23:40:00,
2013-05-27 19:45:00,72.8,63.6,28.59,SSW,199,2.3,2.3,73,0.00,CLR,CLR,0.00,WeatherDisplay:10.37,2013-05-27 23:45:00,
2013-05-27 19:50:00,72.4,63.6,28.59,SSW,196,2.3,2.3,74,0.00,CLR,CLR,0.00,WeatherDisplay:10.37,2013-05-27 23:50:00,
2013-05-27 19:55:00,72.2,63.4,28.59,SSW,196,3.5,3.5,74,0.00,CLR,CLR,0.00,WeatherDisplay:10.37,2013-05-27 23:55:00,
2013-05-27 20:00:00,71.9,63.2,28.59,SSW,196,1.2,1.2,74,0.00,CLR,CLR,0.00,WeatherDisplay:10.37,2013-05-28 00:00:00,
2013-05-27 20:06:00,71.6,63.3,28.59,SSW,196,0.0,0.0,75,0.00,CLR,CLR,0.00,WeatherDisplay:10.37,2013-05-28 00:06:00,
2013-05-27 20:11:00,71.1,62.8,28.59,SSW,196,1.0,1.0,75,0.00,CLR,CLR,0.00,WeatherDisplay:10.37,2013-05-28 00:11:00,
2013-05-27 20:16:00,70.8,62.5,28.59,SSW,196,2.3,2.3,75,0.00,CLR,CLR,0.00,WeatherDisplay:10.37,2013-05-28 00:16:00,
2013-05-27 20:21:00,70.5,62.2,28.59,SSW,196,0.0,0.0,75,0.00,CLR,CLR,0.00,WeatherDisplay:10.37,2013-05-28 00:21:00,
2013-05-27 20:27:00,70.3,62.4,28.60,SSW,196,0.0,0.0,76,0.00,CLR,CLR,0.00,WeatherDisplay:10.37,2013-05-28 00:27:00,
2013-05-27 20:32:00,69.9,62.4,28.60,SSW,196,0.0,0.0,77,0.00,CLR,CLR,0.00,WeatherDisplay:10.37,2013-05-28 00:32:00,
2013-05-27 20:37:00,69.7,62.2,28.60,SSW,196,0.0,0.0,77,0.00,CLR,CLR,0.00,WeatherDisplay:10.37,2013-05-28 00:37:00,
2013-05-27 20:42:00,69.4,62.2,28.60,SSW,196,0.0,0.0,78,0.00,CLR,CLR,0.00,WeatherDisplay:10.37,2013-05-28 00:42:00,
2013-05-27 20:47:00,69.1,61.9,28.59,SSW,196,0.0,0.0,78,0.00,CLR,CLR,0.00,WeatherDisplay:10.37,2013-05-28 00:47:00,
2013-05-27 20:53:00,68.8,62.0,28.60,SSW,196,0.0,0.0,79,0.00,CLR,CLR,0.00,WeatherDisplay:10.37,2013-05-28 00:53:00,
2013-05-27 20:58:00,68.5,62.1,28.60,SSW,196,0.0,0.0,80,0.00,CLR,CLR,0.00,WeatherDisplay:10.37,2013-05-28 00:58:00,
2013-05-27 21:03:00,68.3,61.9,28.61,SSW,196,0.0,0.0,80,0.00,CLR,CLR,0.00,WeatherDisplay:10.37,2013-05-28 01:03:00,
2013-05-27 21:08:00,68.0,61.9,28.61,SSW,196,0.0,0.0,81,0.00,CLR,CLR,0.00,WeatherDisplay:10.37,2013-05-28 01:08:00,
2013-05-27 21:13:00,67.8,61.8,28.61,SSW,196,0.0,0.0,81,0.00,CLR,CLR,0.00,WeatherDisplay:10.37,2013-05-28 01:13:00,
2013-05-27 21:19:00,67.7,62.0,28.61,SSW,196,0.0,0.0,82,0.00,CLR,CLR,0.00,WeatherDisplay:10.37,2013-05-28 01:19:00,
2013-05-27 21:24:00,67.6,61.9,28.61,SSW,196,0.0,0.0,82,0.00,CLR,CLR,0.00,WeatherDisplay:10.37,2013-05-28 01:24:00,
2013-05-27 21:29:00,67.6,61.9,28.62,SSW,196,0.0,0.0,82,0.00,CLR,CLR,0.00,WeatherDisplay:10.37,2013-05-28 01:29:00,
2013-05-27 21:34:00,67.5,62.2,28.62,SSW,196,0.0,0.0,83,0.00,CLR,CLR,0.00,WeatherDisplay:10.37,2013-05-28 01:34:00,
2013-05-27 21:40:00,67.4,62.1,28.62,SSW,196,0.0,0.0,83,0.00,CLR,CLR,0.00,WeatherDisplay:10.37,2013-05-28 01:40:00,
2013-05-27 21:45:00,67.2,61.9,28.62,SSW,196,2.3,0.0,83,0.00,CLR,CLR,0.00,WeatherDisplay:10.37,2013-05-28 01:45:00,
2013-05-27 21:50:00,67.1,62.1,28.62,SSW,196,0.0,0.0,84,0.00,CLR,CLR,0.00,WeatherDisplay:10.37,2013-05-28 01:50:00,
2013-05-27 21:55:00,66.9,61.9,28.62,SSW,196,2.3,2.3,84,0.00,CLR,CLR,0.00,WeatherDisplay:10.37,2013-05-28 01:55:00,
2013-05-27 22:00:00,66.8,62.1,28.62,SSW,196,0.0,0.0,85,0.00,CLR,CLR,0.00,WeatherDisplay:10.37,2013-05-28 02:00:00,
2013-05-27 22:06:00,66.6,61.9,28.63,SSW,196,0.0,0.0,85,0.00,CLR,CLR,0.00,WeatherDisplay:10.37,2013-05-28 02:06:00,
2013-05-27 22:11:00,66.3,61.7,28.63,SSW,196,0.0,0.0,85,0.00,CLR,CLR,0.00,WeatherDisplay:10.37,2013-05-28 02:11:00,
2013-05-27 22:16:00,66.1,61.5,28.63,SSW,196,0.0,0.0,85,0.00,CLR,CLR,0.00,WeatherDisplay:10.37,2013-05-28 02:16:00,
2013-05-27 22:21:00,66.0,61.7,28.63,SSW,196,0.0,0.0,86,0.00,CLR,CLR,0.00,WeatherDisplay:10.37,2013-05-28 02:21:00,
2013-05-27 22:27:00,65.9,61.6,28.64,SSW,196,0.0,0.0,86,0.00,CLR,CLR,0.00,WeatherDisplay:10.37,2013-05-28 02:27:00,
2013-05-27 22:32:00,65.8,61.2,28.63,SSW,196,0.0,0.0,85,0.00,CLR,CLR,0.00,WeatherDisplay:10.37,2013-05-28 02:32:00,
2013-05-27 22:37:00,65.8,61.5,28.63,SSW,196,0.0,0.0,86,0.00,CLR,CLR,0.00,WeatherDisplay:10.37,2013-05-28 02:37:00,
2013-05-27 22:42:00,65.7,61.4,28.64,SSW,196,0.0,0.0,86,0.00,CLR,CLR,0.00,WeatherDisplay:10.37,2013-05-28 02:42:00,
2013-05-27 22:47:00,65.5,61.2,28.64,SSW,196,0.0,0.0,86,0.00,CLR,CLR,0.00,WeatherDisplay:10.37,2013-05-28 02:47:00,
2013-05-27 22:52:00,65.4,61.4,28.63,SSW,196,0.0,0.0,87,0.00,CLR,CLR,0.00,WeatherDisplay:10.37,2013-05-28 02:52:00,
2013-05-27 22:57:00,65.3,61.7,28.63,SSW,196,0.0,0.0,88,0.00,CLR,CLR,0.00,WeatherDisplay:10.37,2013-05-28 02:57:00,
2013-05-27 23:02:00,65.3,61.7,28.63,SSW,196,0.0,0.0,88,0.00,CLR,CLR,0.00,WeatherDisplay:10.37,2013-05-28 03:02:00,
2013-05-27 23:07:00,65.3,61.7,28.63,SSW,196,0.0,0.0,88,0.00,CLR,CLR,0.00,WeatherDisplay:10.37,2013-05-28 03:07:00,
2013-05-27 23:13:00,65.2,61.2,28.63,SSW,196,0.0,0.0,87,0.00,CLR,CLR,0.00,WeatherDisplay:10.37,2013-05-28 03:13:00,
2013-05-27 23:18:00,65.2,61.6,28.63,SSW,196,1.2,1.2,88,0.00,CLR,CLR,0.00,WeatherDisplay:10.37,2013-05-28 03:18:00,
2013-05-27 23:23:00,65.1,61.5,28.63,SSW,196,1.2,0.0,88,0.00,CLR,CLR,0.00,WeatherDisplay:10.37,2013-05-28 03:23:00,
2013-05-27 23:28:00,65.0,61.4,28.63,SSW,196,2.3,2.3,88,0.00,CLR,CLR,0.00,WeatherDisplay:10.37,2013-05-28 03:28:00,
2013-05-27 23:33:00,64.8,61.2,28.63,SSW,196,3.5,3.5,88,0.00,CLR,CLR,0.00,WeatherDisplay:10.37,2013-05-28 03:33:00,
2013-05-27 23:38:00,64.6,60.6,28.63,South,190,3.5,3.5,87,0.00,CLR,CLR,0.00,WeatherDisplay:10.37,2013-05-28 03:38:00,
2013-05-27 23:43:00,64.5,60.9,28.63,South,190,2.3,2.3,88,0.00,CLR,CLR,0.00,WeatherDisplay:10.37,2013-05-28 03:43:00,
2013-05-27 23:48:00,64.4,60.4,28.63,SSE,165,5.0,5.0,87,0.00,CLR,CLR,0.00,WeatherDisplay:10.37,2013-05-28 03:48:00,
2013-05-27 23:53:00,64.4,60.4,28.63,South,169,3.5,3.5,87,0.00,CLR,CLR,0.00,WeatherDisplay:10.37,2013-05-28 03:53:00,
2013-05-27 23:59:00,64.3,60.3,28.63,SSW,193,4.6,4.6,87,0.00,CLR,CLR,0.00,WeatherDisplay:10.37,2013-05-28 03:59:00,